Location: Lahas
(43.5538°N, 0.8906°E)
Time: 11:09:11
(UTC+00:00)

Cosmos 1428 Rocket - Pass Details

Date: 15 May 2026
Orbit: 946 x 987 km, 82.9° (Epoch: 8 June)

Event Time Altitude Azimuth Distance (km) Brightness Sun altitude
Rises 21:30:50 0° 354° (N) 3,675 8.6 -19.5°
Reaches altitude 10° 21:33:23 10° 357° (N) 2,718 7.7 -19.7°
Maximum altitude 21:39:35 67° 80° (E) 1,035 4.5 -20.4°
Enters shadow 21:42:00 38° 150° (SSE) 1,427 4.8 -20.6°
